DELTA 1 DEB, 10866

Orbit data source: Space-Track

DELTA 1 DEB, 10866 is space debris in SSO originally from a launch on Thu, 29 Jul 1976 UTC launched from the Air Force Western Test Range (AFWTR). Debris objects in space refer to the collection of defunct objects orbiting the Earth. Examples of debris include non-operational satellites, rocket bodies, and fragments generated from explosions, collisions, or faulty payload assembly.

Loading next visibility...
Identifier
10866, 1976-077CU
Orbit
SSO
Country
Flag of USUS
Related business
Manufacturer
Unknown
Mission
Spacecraft
Bus & Motor
Unknown
Mass
Unknown
Launch date (UTC)
1976-07-29 (50 years ago)
Launch vehicle
Unknown
Launch site
Air Force Western Test Range (AFWTR)
Object type
Payload
Rocket body
Debris
Shape & HBR
Unknown shape, 0.1 m
Radar Cross Section
Medium (>0.1 m² and <1 m²)

Expand to show TLE details & history
Last TLE update: 20 hours ago

TLE from 20 hours ago
0 DELTA 1 DEB
1 10866U 76077CU  26039.48854672 -.00000036  00000-0  95611-4 0  9998
2 10866 102.7140   3.4003 0149106 289.2996 192.8507 12.30630561224124
Epoch: 2026-02-08T11:43Z
TLE epoch observation values (Epoch: 2026-02-08T11:43:30.436Z)
Latitude
56.11511°
Longitude
-111.54128°
Altitude
1,670.984 km
Speed
6.992 km/s
True Right ascension
13h 31m 43s
True Declination
55° 58' 26"
Sunlit
Object was in daylight at epoch
Visualization orbit readout
Latitude
Unknown
Longitude
Unknown
Altitude
Unknown
Speed
Unknown
Apparent Right ascension
Unknown
Apparent Declination
Unknown
Sunlit
N/A
Visualization observer readout
Local Sidereal Time
10:11:05
Azimuth
Unknown
Elevation
Unknown
Doppler factor
Unknown
Orbital elements
Apogee altitude
1,662.329 km
Perigee altitude
1,426.076 km
Semi-major axis
7,922.34 km
Eccentricity
0.01491
Inclination
102.714°
RAAN
3.4003°
Arg. of periapsis
289.2996°
True anomaly
192.47747°
Mean anomaly
192.8507°
Eccentric anomaly
192.66341°
Mean motion
3.07796 °/min
Orbital period
116.96 mins
BSTAR
0.000095611
Loading maneuver chart data...
Computing Atmospheric mass density...
Loading historical data...
Loading historical data...
Loading historical data...
Loading historical data...
Loading historical data...
Loading historical data...
Loading historical data...

Documentation

Showing up to 5 results
|